Content
SEND FEEDBACK

Daily
Averages
Monthly
Summary
United States of America

CALHOUN, GEORGIA


Home > North America > United States > Georgia
Elevation: 655 feet     Latitude: 34 29N     Longitude: 084 58W

WEATHER
 
SELECT A DAY
Number of Records: 214,198;   Date Range: 1/1/95 - 10/23/14
 
SHARE

PRINT THIS DATA

[ ← Previous Day ]
WEATHER ALMANAC - JULY 3, 2014
[ Next Day → ]
[ °C ]   °F
Weather ElementAverageHighLow
Temperature77.6 °F86 °F (3:53 pm)69.1 °F (11:53 pm)
Dewpoint64.8 °F72 °F (1:53 am)57.9 °F (11:53 pm)
Humidity67.1 %93 % (1:53 am)41 % (3:53 pm)
Barometer30.00 in30.06 in (10:53 pm)29.93 in (3:53 am)
Wind Speed7.1 mph11.5 mph (9:53 am)
Wind Gust18.4 mph (11:53 am)
Weather ElementAverage
Visibility10 mi
Wind DirectionW (270.4 °)

Weather ElementTotal
Precipitation---
Cooling Degree Days12.6 (Base 65)
Growing Degree Days27.6 (Base 50)
Averaged from 23 records on July 3, 2014
WEATHER CONDITIONS BREAKOUT
WIND DIRECTION BREAKOUT
WEATHER BY HOUR - JULY 3, 2014
[ °C ]   °F
Local TimeTemperatureDewpointHumidityBarometerVisibilityWind DirectionWind SpeedGust SpeedPrecipitationEventsConditions
1:53 AM73.9 °F72.0 °F93 %29.97 in10.0 miCalmClear
2:53 AM73.0 °F71.1 °F93 %29.96 in10.0 miSSW (200°)4.6 mphClear
3:53 AM73.0 °F71.1 °F93 %29.93 in10.0 miNNE (20°)3.5 mphClear
4:53 AM72.0 °F70.0 °F93 %29.94 in10.0 miCalmClear
5:53 AM72.0 °F70.0 °F93 %29.96 in10.0 miNW (320°)3.5 mphClear
6:53 AM72.0 °F70.0 °F93 %29.97 in10.0 miNorth (360°)4.6 mphClear
7:53 AM75.9 °F69.1 °F79 %29.99 in10.0 miCalmClear
8:53 AM77.0 °F69.1 °F76 %30.01 in10.0 miNNW (330°)9.2 mphClear
9:53 AM78.8 °F69.8 °F74 %30.05 in10.0 miNorth (360°)11.5 mphClear
10:53 AM81.0 °F68.0 °F65 %30.03 in10.0 miNorth (360°)9.2 mphScattered Clouds
11:53 AM82.0 °F66.9 °F60 %30.03 in10.0 miNorth (360°)11.5 mph18.4 mphPartly Cloudy
12:53 PM82.0 °F64.0 °F54 %30.03 in10.0 miNW (320°)11.5 mph17.3 mphClear
1:53 PM84.0 °F61.0 °F46 %30.01 in10.0 miNNW (340°)10.4 mphClear
2:53 PM84.2 °F60.8 °F45 %30.04 in10.0 miNNW (330°)10.4 mphClear
3:53 PM86.0 °F60.1 °F41 %30.00 in10.0 miNNW (330°)8.1 mphScattered Clouds
4:53 PM86.0 °F61.0 °F43 %29.99 in10.0 miNW (310°)10.4 mphScattered Clouds
5:53 PM84.0 °F60.1 °F44 %29.99 in10.0 miNW (320°)10.4 mphPartly Cloudy
6:53 PM80.1 °F59.0 °F48 %29.99 in10.0 miNNW (330°)10.4 mphScattered Clouds
7:53 PM79.0 °F60.1 °F52 %30.01 in10.0 miNNW (330°)6.9 mphClear
8:53 PM75.0 °F60.1 °F60 %30.03 in10.0 miNW (320°)5.8 mphClear
9:53 PM72.0 °F60.1 °F66 %30.04 in10.0 miNW (320°)6.9 mphClear
10:53 PM72.0 °F59.0 °F64 %30.06 in10.0 miNNW (330°)6.9 mphClear
11:53 PM69.1 °F57.9 °F68 %30.06 in10.0 miNNW (330°)6.9 mphClear
Hourly data recorded from KRMG, located miles away from Calhoun, Georgia







STORIES FROM OUR PARTNERS